| time (UTC) | temp F | wind direction | speed MPH | gust MPH | rain 1hr in | rain 24hr in | rain mn in | humidity % | barometer mb |
| 20260904170415 | 59 | 23 | 2.0 | 4.0 | 0.00 | 0.04 | 0.00 | 86 | 1012.5 |
| 20260904165435 | 59 | 68 | 1.0 | 3.0 | 0.00 | 0.04 | 0.00 | 88 | 1012.5 |
| 20260904164415 | 58 | 23 | 2.0 | 2.0 | 0.00 | 0.04 | 0.00 | 90 | 1012.5 |
| 20260904163435 | 57 | 23 | 2.0 | 3.0 | 0.00 | 0.04 | 0.00 | 92 | 1012.5 |
| 20260904162415 | 57 | 0.0 | 1.0 | 0.00 | 0.04 | 0.00 | 93 | 1012.5 | |
| 20260904161435 | 56 | 45 | 1.0 | 2.0 | 0.00 | 0.04 | 0.00 | 94 | 1012.4 |
| 20260904160415 | 55 | 0.0 | 1.0 | 0.00 | 0.04 | 0.00 | 94 | 1012.3 | |
| 20260904155417 | 54 | 0.0 | 1.0 | 0.00 | 0.04 | 0.00 | 95 | 1012.3 | |
| 20260904154415 | 54 | 0.0 | 0.0 | 0.00 | 0.04 | 0.00 | 95 | 1012.2 | |
| 20260904153415 | 54 | 0.0 | 0.0 | 0.00 | 0.04 | 0.00 | 95 | 1012.2 | |
| 20260904152415 | 53 | 0.0 | 0.0 | 0.00 | 0.04 | 0.00 | 95 | 1012.1 | |
| 20260904151417 | 53 | 0 | 1.0 | 1.0 | 0.00 | 0.04 | 0.00 | 95 | 1012.2 |
| 20260904150415 | 53 | 0 | 1.0 | 2.0 | 0.00 | 0.04 | 0.00 | 95 | 1012.1 |
| 20260904145415 | 52 | 0.0 | 0.0 | 0.00 | 0.05 | 0.00 | 95 | 1012.0 | |
| 20260904144417 | 51 | 0.0 | 1.0 | 0.00 | 0.06 | 0.00 | 95 | 1011.8 | |
| 20260904143435 | 51 | 248 | 2.0 | 4.0 | 0.00 | 0.07 | 0.00 | 95 | 1011.9 |
| 20260904142415 | 51 | 225 | 2.0 | 4.0 | 0.00 | 0.08 | 0.00 | 95 | 1011.7 |
| 20260904141415 | 51 | 0.0 | 0.0 | 0.00 | 0.17 | 0.00 | 95 | 1011.3 | |
| 20260904140437 | 51 | 0.0 | 1.0 | 0.00 | 0.26 | 0.00 | 95 | 1011.2 | |
| 20260904135417 | 51 | 0.0 | 1.0 | 0.00 | 0.28 | 0.00 | 95 | 1011.1 | |
| 20260904134417 | 52 | 248 | 1.0 | 1.0 | 0.00 | 0.30 | 0.00 | 94 | 1010.9 |
| 20260904133417 | 52 | 225 | 2.0 | 3.0 | 0.00 | 0.32 | 0.00 | 94 | 1010.8 |
| 20260904132437 | 52 | 0.0 | 0.0 | 0.00 | 0.33 | 0.00 | 95 | 1010.8 | |
| 20260904131638 | 52 | 0.0 | 0.0 | 0.00 | 0.34 | 0.00 | 95 | 1010.8 | |
| 20260904130717 | 52 | 0.0 | 1.0 | 0.00 | 0.35 | 0.00 | 95 | 1010.8 | |
| 20260904125717 | 53 | 45 | 1.0 | 2.0 | 0.00 | 0.35 | 0.00 | 95 | 1010.7 |
| 20260904124717 | 52 | 23 | 2.0 | 3.0 | 0.00 | 0.35 | 0.00 | 95 | 1010.7 |
| 20260904123717 | 52 | 23 | 1.0 | 2.0 | 0.00 | 0.36 | 0.00 | 95 | 1010.7 |
| 20260904122737 | 52 | 23 | 1.0 | 1.0 | 0.00 | 0.38 | 0.00 | 95 | 1010.7 |
| 20260904121717 | 51 | 0.0 | 0.0 | 0.00 | 0.40 | 0.00 | 95 | 1010.9 | |
| 20260904120717 | 51 | 248 | 1.0 | 3.0 | 0.00 | 0.42 | 0.00 | 94 | 1010.9 |
| 20260904115737 | 51 | 0.0 | 0.0 | 0.00 | 0.43 | 0.00 | 95 | 1010.8 | |
| 20260904114717 | 52 | 0.0 | 0.0 | 0.00 | 0.43 | 0.00 | 94 | 1010.5 | |
| 20260904113717 | 52 | 0.0 | 0.0 | 0.00 | 0.44 | 0.00 | 94 | 1010.3 | |
| 20260904112717 | 52 | 0.0 | 0.0 | 0.00 | 0.44 | 0.00 | 95 | 1010.4 | |
| 20260904111717 | 52 | 0.0 | 0.0 | 0.00 | 0.45 | 0.00 | 95 | 1010.4 | |
| 20260904110737 | 52 | 0.0 | 0.0 | 0.00 | 0.46 | 0.00 | 94 | 1010.3 | |
| 20260904105757 | 52 | 0.0 | 0.0 | 0.00 | 0.46 | 0.00 | 95 | 1010.2 | |
| 20260904104717 | 52 | 0.0 | 0.0 | 0.00 | 0.49 | 0.00 | 95 | 1010.2 | |
| 20260904103717 | 52 | 0.0 | 0.0 | 0.00 | 0.51 | 0.00 | 94 | 1010.1 | |
| 20260904102717 | 52 | 0.0 | 0.0 | 0.00 | 0.51 | 0.00 | 94 | 1010.1 | |
| 20260904101717 | 52 | 0.0 | 0.0 | 0.00 | 0.52 | 0.00 | 94 | 1010.0 | |
| 20260904100717 | 53 | 0.0 | 0.0 | 0.00 | 0.52 | 0.00 | 95 | 1010.0 | |
| 20260904095717 | 52 | 0.0 | 0.0 | 0.00 | 0.52 | 0.00 | 94 | 1010.1 | |
| 20260904094717 | 52 | 0.0 | 0.0 | 0.00 | 0.52 | 0.00 | 94 | 1010.1 | |
| 20260904093717 | 52 | 0.0 | 0.0 | 0.00 | 0.52 | 0.00 | 94 | 1010.1 | |
| 20260904092737 | 52 | 0.0 | 0.0 | 0.00 | 0.52 | 0.00 | 94 | 1010.2 | |
| 20260904091717 | 52 | 0.0 | 0.0 | 0.00 | 0.52 | 0.00 | 94 | 1010.1 | |
| 20260904090717 | 52 | 0.0 | 0.0 | 0.00 | 0.52 | 0.00 | 94 | 1010.2 | |
| 20260904085737 | 52 | 23 | 1.0 | 2.0 | 0.00 | 0.52 | 0.00 | 94 | 1010.2 |
| 20260904084717 | 52 | 0.0 | 0.0 | 0.00 | 0.52 | 0.00 | 94 | 1010.1 | |
| 20260904083717 | 52 | 0.0 | 0.0 | 0.00 | 0.52 | 0.00 | 94 | 1010.1 | |
| 20260904082717 | 53 | 0.0 | 0.0 | 0.00 | 0.52 | 0.00 | 94 | 1010.2 | |
| 20260904081717 | 53 | 23 | 1.0 | 2.0 | 0.00 | 0.52 | 0.00 | 94 | 1010.1 |
| 20260904080717 | 52 | 0.0 | 1.0 | 0.00 | 0.52 | 0.00 | 94 | 1010.1 | |
| 20260904075717 | 53 | 23 | 1.0 | 2.0 | 0.00 | 0.52 | 0.00 | 95 | 1010.1 |
| 20260904074717 | 52 | 0.0 | 0.0 | 0.00 | 0.52 | 0.00 | 94 | 1010.0 | |
| 20260904073717 | 52 | 45 | 1.0 | 1.0 | 0.00 | 0.52 | 0.00 | 94 | 1009.9 |
| 20260904072717 | 52 | 0.0 | 0.0 | 0.00 | 0.52 | 0.00 | 94 | 1009.9 | |
| 20260904071717 | 52 | 0.0 | 0.0 | 0.00 | 0.52 | 0.00 | 94 | 1009.8 | |
| 20260904070718 | 52 | 0.0 | 0.0 | 0.00 | 0.52 | 0.00 | 94 | 1009.8 | |
| 20260904065716 | 52 | 0.0 | 0.0 | 0.00 | 0.52 | 0.52 | 94 | 1009.8 | |
| 20260904064716 | 52 | 0.0 | 1.0 | 0.00 | 0.52 | 0.52 | 94 | 1009.7 | |
| 20260904063736 | 52 | 0.0 | 0.0 | 0.00 | 0.52 | 0.52 | 94 | 1009.8 | |
| 20260904062716 | 52 | 0.0 | 0.0 | 0.00 | 0.52 | 0.52 | 94 | 1009.7 | |
| 20260904061716 | 52 | 0.0 | 0.0 | 0.00 | 0.52 | 0.52 | 94 | 1009.7 | |
| 20260904060716 | 52 | 0.0 | 0.0 | 0.00 | 0.52 | 0.52 | 94 | 1009.6 | |
| 20260904055716 | 53 | 45 | 1.0 | 2.0 | 0.00 | 0.52 | 0.52 | 94 | 1009.7 |
| 20260904054716 | 53 | 45 | 1.0 | 2.0 | 0.00 | 0.52 | 0.52 | 94 | 1009.7 |
| 20260904053716 | 53 | 0.0 | 0.0 | 0.00 | 0.52 | 0.52 | 94 | 1009.6 | |
| 20260904052716 | 52 | 0.0 | 0.0 | 0.00 | 0.52 | 0.52 | 94 | 1009.7 | |
| 20260904051716 | 52 | 0.0 | 1.0 | 0.00 | 0.52 | 0.52 | 94 | 1009.6 | |
| 20260904050716 | 52 | 0.0 | 1.0 | 0.00 | 0.52 | 0.52 | 93 | 1009.6 | |
| 20260904045716 | 53 | 0.0 | 0.0 | 0.00 | 0.52 | 0.52 | 93 | 1009.6 | |
| 20260904044715 | 53 | 0.0 | 0.0 | 0.00 | 0.52 | 0.52 | 93 | 1009.5 | |
| 20260904043715 | 53 | 0.0 | 0.0 | 0.00 | 0.52 | 0.52 | 93 | 1009.6 | |
| 20260904042716 | 53 | 0.0 | 0.0 | 0.00 | 0.52 | 0.52 | 93 | 1009.5 | |
| 20260904041715 | 53 | 0.0 | 0.0 | 0.00 | 0.52 | 0.52 | 93 | 1009.5 | |
| 20260904040716 | 53 | 68 | 1.0 | 2.0 | 0.00 | 0.52 | 0.52 | 93 | 1009.5 |
| 20260904035716 | 53 | 270 | 1.0 | 2.0 | 0.00 | 0.52 | 0.52 | 93 | 1009.4 |
| 20260904034715 | 54 | 0.0 | 0.0 | 0.00 | 0.52 | 0.52 | 92 | 1009.3 | |
| 20260904033716 | 54 | 0.0 | 1.0 | 0.00 | 0.52 | 0.52 | 92 | 1009.2 | |
| 20260904032716 | 55 | 0.0 | 0.0 | 0.00 | 0.52 | 0.52 | 92 | 1009.1 | |
| 20260904031716 | 55 | 0.0 | 0.0 | 0.00 | 0.52 | 0.52 | 92 | 1009.1 | |
| 20260904030715 | 55 | 0.0 | 0.0 | 0.00 | 0.52 | 0.52 | 91 | 1009.0 | |
| 20260904025716 | 56 | 0.0 | 0.0 | 0.00 | 0.52 | 0.52 | 90 | 1009.0 | |
| 20260904024736 | 56 | 0.0 | 0.0 | 0.00 | 0.52 | 0.52 | 90 | 1009.0 | |
| 20260904023716 | 57 | 180 | 1.0 | 2.0 | 0.00 | 0.52 | 0.52 | 90 | 1008.8 |
| 20260904022736 | 57 | 0.0 | 0.0 | 0.00 | 0.52 | 0.52 | 90 | 1008.9 | |
| 20260904021736 | 57 | 0.0 | 0.0 | 0.00 | 0.52 | 0.52 | 89 | 1008.8 | |
| 20260904020715 | 57 | 0.0 | 0.0 | 0.00 | 0.52 | 0.52 | 89 | 1008.8 | |
| 20260904015716 | 57 | 0.0 | 0.0 | 0.00 | 0.52 | 0.52 | 89 | 1008.7 | |
| 20260904014715 | 57 | 0.0 | 0.0 | 0.00 | 0.52 | 0.52 | 88 | 1008.6 | |
| 20260904013716 | 57 | 0.0 | 0.0 | 0.00 | 0.52 | 0.52 | 87 | 1008.5 | |
| 20260904012736 | 57 | 0.0 | 0.0 | 0.00 | 0.52 | 0.52 | 87 | 1008.4 | |
| 20260904011715 | 57 | 225 | 1.0 | 2.0 | 0.00 | 0.52 | 0.52 | 86 | 1008.5 |
| 20260904010716 | 58 | 225 | 1.0 | 2.0 | 0.00 | 0.52 | 0.52 | 86 | 1008.4 |
| 20260904005716 | 58 | 203 | 1.0 | 3.0 | 0.00 | 0.52 | 0.52 | 86 | 1008.4 |
| 20260904004715 | 58 | 225 | 2.0 | 4.0 | 0.00 | 0.52 | 0.52 | 86 | 1008.5 |
| 20260904003715 | 58 | 248 | 1.0 | 1.0 | 0.00 | 0.52 | 0.52 | 86 | 1008.6 |
| 20260904002735 | 58 | 225 | 1.0 | 2.0 | 0.00 | 0.52 | 0.52 | 86 | 1008.8 |
| 20260904001755 | 58 | 0.0 | 1.0 | 0.01 | 0.52 | 0.52 | 86 | 1008.9 | |
| 20260903235715 | 59 | 0.0 | 1.0 | 0.01 | 0.52 | 0.52 | 85 | 1009.1 | |
| 20260903234715 | 59 | 248 | 1.0 | 3.0 | 0.01 | 0.52 | 0.52 | 86 | 1009.1 |
| 20260903233716 | 59 | 203 | 1.0 | 2.0 | 0.01 | 0.52 | 0.52 | 87 | 1009.1 |
| 20260903232716 | 59 | 0.0 | 2.0 | 0.01 | 0.52 | 0.52 | 88 | 1009.0 | |
| 20260903231715 | 59 | 203 | 1.0 | 2.0 | 0.01 | 0.51 | 0.51 | 87 | 1009.0 |
| 20260903230735 | 59 | 225 | 2.0 | 5.0 | 0.01 | 0.51 | 0.51 | 87 | 1009.1 |
| 20260903225715 | 59 | 203 | 1.0 | 2.0 | 0.01 | 0.51 | 0.51 | 87 | 1009.1 |
| 20260903224716 | 59 | 270 | 2.0 | 3.0 | 0.01 | 0.51 | 0.51 | 86 | 1009.1 |
| 20260903223816 | 59 | 225 | 2.0 | 4.0 | 0.02 | 0.51 | 0.51 | 86 | 1009.1 |
| 20260903222756 | 60 | 248 | 4.0 | 7.0 | 0.02 | 0.51 | 0.51 | 87 | 1009.2 |
| 20260903221735 | 60 | 0.0 | 4.0 | 0.01 | 0.50 | 0.50 | 86 | 1009.2 | |
| 20260903220716 | 60 | 0.0 | 0.0 | 0.01 | 0.50 | 0.50 | 86 | 1009.2 | |
| 20260903215736 | 60 | 0.0 | 1.0 | 0.01 | 0.50 | 0.50 | 84 | 1009.2 | |
| 20260903214716 | 60 | 225 | 2.0 | 4.0 | 0.01 | 0.50 | 0.50 | 80 | 1009.1 |
| 20260903213716 | 61 | 203 | 5.0 | 9.0 | 0.00 | 0.50 | 0.49 | 78 | 1009.1 |
| 20260903212716 | 62 | 225 | 3.0 | 4.0 | 0.00 | 0.50 | 0.49 | 76 | 1008.9 |
| 20260903211715 | 63 | 180 | 4.0 | 8.0 | 0.00 | 0.50 | 0.49 | 72 | 1008.9 |
| 20260903210715 | 64 | 225 | 8.0 | 13.0 | 0.00 | 0.50 | 0.49 | 68 | 1008.8 |
| 20260903205715 | 65 | 270 | 3.0 | 7.0 | 0.00 | 0.50 | 0.49 | 69 | 1008.7 |
| 20260903204735 | 64 | 225 | 2.0 | 5.0 | 0.01 | 0.51 | 0.49 | 69 | 1008.6 |
| 20260903203716 | 64 | 225 | 4.0 | 7.0 | 0.01 | 0.51 | 0.49 | 71 | 1008.6 |
| 20260903202715 | 64 | 158 | 2.0 | 2.0 | 0.01 | 0.52 | 0.49 | 74 | 1008.6 |
| 20260903201715 | 63 | 158 | 2.0 | 5.0 | 0.01 | 0.53 | 0.49 | 76 | 1008.6 |
| 20260903200735 | 62 | 203 | 2.0 | 6.0 | 0.01 | 0.53 | 0.49 | 76 | 1008.7 |
| 20260903195715 | 62 | 203 | 7.0 | 10.0 | 0.01 | 0.54 | 0.49 | 77 | 1008.8 |
| 20260903194736 | 62 | 248 | 4.0 | 7.0 | 0.00 | 0.54 | 0.48 | 79 | 1008.7 |
| 20260903193715 | 61 | 225 | 4.0 | 6.0 | 0.00 | 0.55 | 0.48 | 79 | 1008.8 |
| 20260903192736 | 61 | 248 | 5.0 | 8.0 | 0.00 | 0.55 | 0.48 | 80 | 1008.7 |
| 20260903191716 | 61 | 203 | 2.0 | 4.0 | 0.00 | 0.56 | 0.48 | 81 | 1008.8 |
| 20260903190755 | 62 | 23 | 1.0 | 2.0 | 0.00 | 0.56 | 0.48 | 81 | 1008.8 |
| 20260903185715 | 61 | 270 | 2.0 | 4.0 | 0.00 | 0.56 | 0.48 | 82 | 1008.7 |
| 20260903184716 | 60 | 270 | 1.0 | 3.0 | 0.00 | 0.56 | 0.48 | 84 | 1008.7 |
| 20260903183756 | 59 | 0.0 | 5.0 | 0.00 | 0.56 | 0.48 | 85 | 1008.6 | |
| 20260903182735 | 59 | 158 | 6.0 | 10.0 | 0.00 | 0.56 | 0.48 | 85 | 1008.6 |
| 20260903181715 | 59 | 180 | 3.0 | 6.0 | 0.00 | 0.56 | 0.48 | 86 | 1008.6 |
| 20260903180715 | 59 | 68 | 1.0 | 4.0 | 0.00 | 0.56 | 0.48 | 87 | 1008.4 |
| 20260903175715 | 59 | 270 | 1.0 | 2.0 | 0.00 | 0.56 | 0.48 | 88 | 1008.5 |
| 20260903174715 | 58 | 270 | 3.0 | 5.0 | 0.00 | 0.56 | 0.48 | 89 | 1008.4 |
| 20260903173716 | 58 | 225 | 3.0 | 6.0 | 0.00 | 0.56 | 0.48 | 89 | 1008.4 |
| 20260903172735 | 58 | 135 | 2.0 | 6.0 | 0.00 | 0.56 | 0.48 | 90 | 1008.4 |
| 20260903171715 | 58 | 270 | 1.0 | 2.0 | 0.00 | 0.56 | 0.48 | 91 | 1008.3 |
| 20260903170716 | 58 | 68 | 2.0 | 4.0 | 0.00 | 0.56 | 0.48 | 92 | 1008.1 |